Regional Weather Roundup
Issued by NWS

Home | Current Version | Previous Version | Graphics & Text | Print | Product List | Glossary On
Versions: 1 2 3 4 5 6 7 8 9 10 11 12 13 14 15 16 17 18 19 20 21 22 23 24 25 26 27 28 29 30 31 32 33 34 35 36 37 38 39 40 41 42 43 44 45 46 47 48 49 50
000
ASUS45 KCYS 290610
RWRWY

WYOMING REGIONAL WEATHER ROUNDUP
NATIONAL WEATHER SERVICE CHEYENNE WY
1200 AM MDT WED JUL 29 2015

NOTE:  "FAIR" INDICATES FEW OR NO CLOUDS BELOW 12,000 FEET
WITH NO SIGNIFICANT WEATHER AND/OR OBSTRUCTIONS TO VISIBILITY.

WYZ001-290700-
YELLOWSTONE NATIONAL PARK

CITY           SKY/WX    TMP DP  RH WIND       PRES   REMARKS
LK YELLOWSTONE   N/A     32  29  88 CALM      30.47S
6HR MIN TEMP:  32; 6HR MAX TEMP:  54;

W YELLOWSTONE  NOT AVBL

$$
WYZ002>013-054>058-071-098>099-290700-
NORTHERN WYOMING

CITY           SKY/WX    TMP DP  RH WIND       PRES   REMARKS
JACKSON        FAIR      39  36  87 CALM      30.41S
CODY           FAIR      54  32  43 CALM      30.30S
GREYBULL       FAIR      58  33  39 W7        30.24R
6HR MIN TEMP:  58; 6HR MAX TEMP:  76;

WORLAND        FAIR      56  32  40 CALM      30.25S
6HR MIN TEMP:  53; 6HR MAX TEMP:  75;

SHERIDAN       FAIR      54  37  52 CALM      30.24R
6HR MIN TEMP:  50; 6HR MAX TEMP:  73;

BUFFALO        FAIR      54  35  48 W9        30.29S
6HR MIN TEMP:  51; 6HR MAX TEMP:  69;

GILLETTE       FAIR      51  35  54 W8        30.24R
6HR MIN TEMP:  50; 6HR MAX TEMP:  71;

HULETT         FAIR      54  36  50 SW3       30.24R
NEWCASTLE      FAIR      52  34  50 CALM      30.24R

$$
WYZ014>020-022>026-101>103-290700-
CENTRAL WYOMING

CITY           SKY/WX    TMP DP  RH WIND       PRES   REMARKS
BIG PINEY      FAIR      43  27  53 N8        30.41S
6HR MIN TEMP:  43; 6HR MAX TEMP:  69;

PINEDALE       FAIR      39  32  75 NW6       30.42S WCI  35
DUBOIS         FAIR      43  28  56 NW13      30.42S
LANDER         FAIR      57  29  34 W10       30.33R
6HR MIN TEMP:  56; 6HR MAX TEMP:  75;

RIVERTON       FAIR      55  27  34 W5        30.33R
6HR MIN TEMP:  55; 6HR MAX TEMP:  76;

CASPER         FAIR      49  30  48 N8        30.32R
6HR MIN TEMP:  46; 6HR MAX TEMP:  76;

DOUGLAS        FAIR      50  28  42 CALM      30.32R
6HR MIN TEMP:  49; 6HR MAX TEMP:  78;


$$
WYZ021-027>030-104>119-290700-
SOUTHERN WYOMING

CITY           SKY/WX    TMP DP  RH WIND       PRES   REMARKS
EVANSTON       FAIR      52  28  39 NE6       30.41R
6HR MIN TEMP:  52; 6HR MAX TEMP:  71;

KEMMERER       FAIR      45  30  57 NW13      30.41S
FORT BRIDGER   CLEAR     54  23  30 W5        30.43R
ROCK SPRINGS   FAIR      54  19  25 SW7       30.36S
6HR MIN TEMP:  54; 6HR MAX TEMP:  70;

DIXON          FAIR      52  27  39 NE7       30.37S
RAWLINS        FAIR      45  15  30 N3        30.36R
6HR MIN TEMP:  45; 6HR MAX TEMP:  72;

SARATOGA       FAIR      43  28  56 E5        30.39S
LARAMIE        FAIR      54  25  32 SE10      30.39S
6HR MIN TEMP:  54; 6HR MAX TEMP:  74;

CHEYENNE       MOCLDY    61  34  36 W6        30.34S
6HR MIN TEMP:  61; 6HR MAX TEMP:  79;

TORRINGTON     FAIR      57  37  47 NE10      30.25R
6HR MIN TEMP:  57; 6HR MAX TEMP:  83;

PINE BLUFFS    FAIR      52  37  58 NW3       30.29R

$$


USA.gov is the U.S. government's official web portal to all federal, state and local government web resources and services.